This is the latest recevied weather packets stored in our database for station/object KB2SKP. If no packets are shown the sender has not sent any weather packets the latest 10 day(s).
| Time | Temp. | Humidity | Pressure | Rain* | Wind** | Luminosity | Snow |
|---|---|---|---|---|---|---|---|
| 1777295201 | 11.67° C | 74% | 1021.1 hPa | 0 mm | - | 27 W/m² | - |
| 1777294898 | 11.67° C | 76% | 1021.1 hPa | 0 mm | - | 28 W/m² | - |
| 1777294592 | 11.11° C | 78% | 1021 hPa | 0 mm | - | 37 W/m² | - |
| 1777294289 | 10.56° C | 83% | 1021 hPa | 0 mm | - | 25 W/m² | - |
| 1777293986 | 10° C | 85% | 1021 hPa | 0 mm | - | 23 W/m² | - |
| 1777293682 | 10° C | 88% | 1021 hPa | 0 mm | - | 23 W/m² | - |
| 1777293377 | 9.44° C | 91% | 1021 hPa | 0 mm | - | 22 W/m² | - |
| 1777293074 | 8.89° C | 96% | 1020.8 hPa | 0 mm | - | 22 W/m² | - |
| 1777292772 | 8.89° C | 97% | 1020.8 hPa | 0 mm | - | 21 W/m² | - |
| 1777292469 | 8.89° C | 98% | 1020.5 hPa | 0 mm | - | 7 W/m² | - |
| 1777292166 | 8.33° C | 98% | 1020.5 hPa | 0 mm | - | 20 W/m² | - |
| 1777291862 | 7.78° C | 98% | 1020.4 hPa | 0 mm | - | 19 W/m² | - |
| 1777291558 | 6.67° C | 98% | 1020.3 hPa | 0 mm | - | 19 W/m² | - |
| 1777291255 | 6.67° C | 97% | 1020.3 hPa | 0 mm | - | 18 W/m² | - |
| 1777290952 | 6.11° C | 98% | 1020.5 hPa | 0 mm | - | 17 W/m² | - |
| 1777290649 | 5.56° C | 97% | 1020.3 hPa | 0 mm | - | 17 W/m² | - |
| 1777290345 | 5° C | 97% | 1020.1 hPa | 0 mm | - | 17 W/m² | - |
| 1777290041 | 4.44° C | 97% | 1020.1 hPa | 0 mm | - | 15 W/m² | - |
| 1777289737 | 4.44° C | 97% | 1020 hPa | 0 mm | - | 16 W/m² | - |
| 1777289433 | 3.89° C | 97% | 1019.8 hPa | 0 mm | - | 14 W/m² | - |
| 1777289131 | 3.89° C | 97% | 1019.8 hPa | 0 mm | - | 13 W/m² | - |
| 1777288827 | 3.89° C | 97% | 1019.8 hPa | 0 mm | - | 13 W/m² | - |
| 1777288524 | 3.33° C | 97% | 1019.9 hPa | 0 mm | - | 12 W/m² | - |
| 1777288220 | 3.33° C | 97% | 1019.6 hPa | 0 mm | - | 11 W/m² | - |
| 1777287916 | 3.33° C | 97% | 1019.7 hPa | 0 mm | - | 10 W/m² | - |
* Rain latest hour (hover to see other rain measurements)
** Current wind speed in m/s (hover to see current wind gust speed)